Temp
9 9 10 10 10 10 10 10 10 10 10 10 10 10 10 10 10 9 9 15 18 19 19 19 20 21 21 20 22 22 18 19 21 23 25 28 28 30 31 31 30 29 27 29 30
9 9 9 10 10 10 10 10 10 10 10 10 10 10 10 10 9 9 17 19 19 17 15 17 18 19 17 19 20 19 18 20 23 24 25 27 27 28 30 30 29 28 28 28 29
10 9 9 9 9 9 10 10 10 10 10 10 10 10 10 10 10 12 20 19 14 14 15 17 18 19 18 19 19 20 20 22 24 25 25 26 26 27 29 29 27 26 26 25 25
9 9 9 9 9 9 9 9 9 9 10 10 10 10 10 10 12 19 19 18 19 14 14 16 16 17 17 17 20 20 22 22 24 25 25 26 26 28 27 27 27 27 25 22 21
9 9 9 10 9 9 9 9 9 9 9 9 10 9 9 10 11 18 17 15 17 14 15 16 15 16 16 18 19 19 20 22 23 23 23 26 26 26 26 27 27 27 26 22 20
8 8 8 9 9 9 9 8 9 9 9 9 9 9 9 9 12 13 14 14 17 15 15 16 16 16 18 18 19 20 21 21 22 22 23 25 25 26 26 25 26 26 24 24 21
7 7 8 8 8 8 8 8 8 9 8 8 8 9 9 10 12 13 13 13 14 16 17 17 18 18 18 20 19 20 21 20 22 23 23 24 24 24 25 24 24 25 25 24 23
7 7 7 7 7 7 8 8 8 8 8 8 8 8 9 11 11 10 13 11 14 15 15 18 18 17 18 18 20 20 20 20 22 23 22 24 23 24 25 24 23 24 25 26 23
6 7 7 6 6 7 7 8 8 7 8 8 8 8 9 12 11 11 11 12 15 16 16 18 18 17 18 17 16 18 19 19 21 22 23 22 23 23 24 23 23 23 23 25 25
6 6 6 6 6 7 7 7 8 8 8 8 9 9 10 12 14 14 13 12 15 18 17 17 16 15 15 15 17 18 19 21 20 23 21 21 21 22 23 23 22 22 23 24 24
6 6 6 6 6 6 6 6 6 8 9 10 11 11 14 16 15 17 15 13 15 17 16 17 16 16 17 17 19 21 21 21 21 22 22 20 20 21 22 22 22 22 22 22 23
6 6 6 6 6 6 6 6 8 10 8 11 11 12 12 14 13 15 16 15 15 15 18 17 16 18 19 19 19 19 19 20 22 21 22 20 20 21 21 21 22 22 22 21 22
6 6 6 6 6 6 6 7 9 9 8 11 13 12 13 13 12 13 16 18 17 17 18 18 19 20 20 20 20 20 20 20 21 22 22 21 19 20 20 20 21 22 23 22 22
6 6 6 6 6 6 6 9 9 8 8 12 14 14 14 13 13 16 16 18 20 18 18 19 20 20 20 20 21 19 21 22 22 20 18 19 18 19 20 21 22 22 23 23 21
6 6 6 6 6 6 7 7 8 9 8 16 12 10 11 13 16 17 18 17 20 19 19 19 20 19 19 21 21 21 22 21 22 20 19 18 15 17 20 21 21 22 23 23 20
6 6 6 6 6 7 7 7 8 9 9 14 13 13 12 12 14 18 17 18 21 21 20 20 22 22 21 22 23 23 22 22 22 20 18 20 19 20 21 21 23 21 22 23 22
6 6 7 6 7 9 8 7 8 7 14 14 13 13 12 11 14 15 17 16 17 17 18 20 21 21 23 21 21 22 19 17 17 17 18 21 20 20 21 23 24 24 22 23 21
6 10 11 9 9 8 8 7 8 13 13 16 15 13 10 11 15 15 17 16 18 19 18 18 18 21 23 21 21 21 19 15 17 17 21 22 19 21 23 25 25 25 22 20 20
7 9 10 10 10 8 7 8 8 13 15 15 13 11 11 13 12 16 16 18 19 20 19 19 19 23 23 24 23 20 18 19 19 20 20 19 20 24 24 25 24 21 21 20 19
6 7 9 10 9 8 7 9 9 12 13 13 11 10 10 11 11 16 16 18 20 21 21 20 19 22 23 24 23 21 20 19 15 17 18 19 19 21 21 24 22 21 21 19 20
6 6 11 11 9 8 9 9 10 12 12 12 11 10 10 10 11 13 17 19 21 21 21 21 19 21 23 22 21 20 20 16 16 16 16 15 17 19 19 20 23 20 20 20 20
6 7 11 11 9 7 8 9 9 11 12 13 13 11 10 10 11 14 17 19 22 22 20 20 18 18 21 23 24 23 21 17 16 18 16 15 15 19 20 20 22 21 22 21 21
7 7 11 11 8 8 9 9 10 11 11 12 12 11 11 9 12 13 18 20 21 21 20 19 17 16 21 21 21 22 21 20 18 17 17 17 17 18 18 20 22 22 22 20 20
8 9 8 9 9 8 9 10 10 13 13 13 13 12 10 10 11 14 17 19 21 22 20 21 17 17 17 20 20 22 23 22 19 16 18 18 16 16 17 19 21 21 20 20 19
6 7 9 8 9 9 9 9 9 10 12 14 14 13 13 13 14 14 15 16 19 21 19 18 17 19 18 19 21 21 24 24 22 20 18 18 18 17 17 17 18 21 21 20 19
7 8 8 8 9 9 9 9 9 10 11 13 12 12 12 12 12 13 12 12 16 18 19 15 16 17 16 18 20 19 19 20 19 19 19 18 17 16 15 17 18 19 21 20 19
7 8 7 9 9 9 9 9 9 11 13 12 12 12 12 12 12 11 11 10 11 12 16 15 15 14 15 16 19 17 17 17 19 19 18 17 16 17 17 18 16 16 18 19 19
Height
811 808 805 803 801 799 797 795 792 790 788 786 784 783 781 779 775 772 763 753 754 757 758 758 759 762 766 766 764 764 790 791 782 776 769 750 757 741 732 736 740 739 730 732 723
808 805 803 800 798 796 793 791 789 787 786 784 782 780 778 776 774 764 744 743 744 754 755 757 757 759 767 765 764 770 782 774 761 760 762 754 753 750 743 737 740 739 730 735 736
807 803 801 798 796 793 790 788 785 783 781 780 780 778 776 774 770 746 739 737 738 746 753 755 756 759 767 762 762 762 767 758 753 754 753 754 753 745 745 749 745 747 739 741 751
804 801 798 795 792 790 786 784 781 779 778 776 776 775 775 774 767 735 733 733 734 742 751 753 756 762 766 767 758 765 752 755 753 750 752 753 749 748 749 752 745 739 741 747 756
801 798 794 792 789 785 782 779 777 775 773 772 771 771 771 767 752 733 732 737 738 741 746 750 754 760 764 761 760 761 755 751 751 751 748 747 751 749 747 743 747 746 743 750 758
798 795 791 788 784 780 778 776 772 770 768 767 767 767 766 754 739 736 737 740 741 741 743 747 748 750 756 757 755 747 752 754 751 750 746 751 750 745 741 736 741 749 750 749 751
795 791 788 784 779 775 772 770 768 765 763 762 761 761 753 738 735 733 735 737 739 741 739 740 741 746 749 749 745 747 756 754 747 747 748 743 754 751 739 736 739 746 751 753 756
791 787 783 779 775 771 767 764 760 757 757 756 756 755 735 731 726 727 719 729 733 737 738 737 740 746 747 744 742 751 754 762 744 744 743 747 754 744 737 740 739 743 751 752 755
787 783 779 775 770 767 763 758 752 749 748 750 750 751 731 719 714 705 718 725 725 729 733 736 741 746 744 754 762 753 755 761 751 738 741 748 750 740 735 741 742 740 744 750 749
785 780 775 771 766 763 757 751 741 737 737 741 744 748 725 706 703 699 704 713 722 723 729 736 739 747 750 756 760 756 757 750 756 740 743 750 750 741 735 738 743 737 738 740 743
781 776 771 766 761 757 753 749 741 736 734 728 725 719 701 700 700 696 699 707 718 716 725 728 737 734 736 742 740 735 745 749 745 739 743 750 749 745 739 738 739 737 735 737 739
777 772 766 759 755 751 749 749 740 736 729 717 711 708 700 703 701 692 697 699 707 709 713 725 722 724 728 734 738 739 746 748 738 735 740 746 749 742 738 738 735 735 733 734 734
772 766 760 754 749 744 742 740 736 737 730 699 694 688 688 698 694 687 691 682 689 700 700 706 711 715 720 728 734 734 739 744 745 737 736 743 754 748 739 736 730 729 726 727 729
766 760 755 750 747 742 738 735 736 737 728 691 681 682 688 693 682 673 680 681 679 690 697 700 699 706 715 718 722 734 725 732 738 749 768 750 767 751 744 736 728 723 722 721 724
760 754 750 747 742 739 731 731 732 733 729 672 685 689 687 683 661 657 666 677 668 674 687 692 695 705 710 708 713 723 720 731 735 748 757 760 778 750 743 736 720 714 713 714 717
753 745 742 738 737 729 728 729 730 730 719 678 680 677 678 676 669 655 661 670 664 672 680 686 680 690 697 701 703 709 721 730 733 744 765 748 759 734 734 719 710 707 705 702 710
747 737 732 733 730 727 727 729 729 736 683 675 675 673 678 669 663 665 659 675 674 687 691 688 685 684 685 704 704 712 735 766 773 770 752 743 755 727 711 701 698 696 699 699 707
741 731 729 726 725 725 726 736 727 687 683 669 670 670 680 669 657 663 657 670 667 666 685 692 704 680 677 690 704 709 725 760 762 766 744 735 740 719 695 684 685 682 691 701 706
736 729 727 725 720 722 729 724 718 687 677 672 676 681 676 664 667 658 661 656 658 659 676 684 688 670 671 675 688 709 728 721 739 735 748 740 722 694 685 681 680 689 694 702 708
739 733 726 723 720 722 727 715 707 696 685 680 681 684 683 676 672 653 662 652 654 653 654 667 692 669 669 675 679 696 702 731 750 761 755 736 733 723 705 685 686 695 697 704 709
741 737 725 726 724 725 718 710 699 690 687 682 682 687 687 686 679 665 651 643 643 648 651 661 677 676 669 681 689 697 707 727 736 744 758 766 746 713 714 703 686 698 697 705 711
746 741 727 726 727 730 723 711 704 689 679 673 672 681 686 685 679 666 653 644 634 640 662 663 682 689 679 665 664 677 696 713 741 741 745 754 750 711 706 694 684 694 696 705 712
749 742 728 726 730 723 716 707 698 686 680 674 670 679 680 689 677 668 647 636 636 644 658 668 690 703 683 678 673 681 685 694 707 721 732 742 744 720 722 708 695 695 703 712 717
752 744 738 732 730 730 720 707 699 683 671 665 667 672 680 682 680 664 650 643 641 643 650 656 685 692 705 685 683 681 678 684 698 727 725 724 737 747 739 718 708 706 712 716 720
758 756 749 740 729 727 723 718 708 695 681 671 665 670 669 666 664 665 658 657 644 644 656 666 686 674 681 678 675 680 673 673 686 698 717 723 729 733 736 725 719 714 717 722 728
765 762 752 743 732 726 722 716 712 701 693 677 675 673 672 672 675 674 675 680 662 654 658 670 691 686 697 688 680 694 691 685 687 696 705 715 728 729 732 729 729 725 726 733 735
767 762 756 742 737 731 726 718 713 701 685 683 680 677 675 676 677 680 683 684 678 676 668 678 691 705 712 699 687 711 709 705 694 697 700 719 722 726 736 736 742 742 740 742 740
Wind_Speed
16 16 16 16 14 17 18 18 19 19 18 18 18 17 18 20 23 25 13 19 12 18 13 9 4 18 12 4 3 4 3 7 7 6 2 12 6 6 5 3 6 7 7 9 30
17 17 17 17 17 18 17 18 19 20 20 19 18 17 17 17 22 23 35 34 34 16 7 11 3 10 4 6 4 5 6 8 5 6 2 6 4 6 5 1 4 11 15 14 17
21 19 19 19 19 19 20 21 21 18 19 19 19 18 16 14 7 10 8 10 26 22 16 7 7 2 5 3 6 5 8 3 3 9 9 6 8 4 3 2 2 6 9 10 10
23 23 23 22 22 22 22 22 21 20 18 19 19 18 16 5 6 4 6 23 12 21 16 8 5 4 7 9 5 5 4 5 3 5 4 5 4 5 4 3 6 11 10 8 10
25 25 24 24 25 24 24 22 20 20 20 18 20 17 11 9 13 19 15 25 9 23 21 8 5 6 6 6 4 8 4 2 7 12 6 5 4 3 5 1 4 9 12 12 8
26 26 27 28 27 26 26 25 23 21 21 21 19 18 11 24 29 36 34 20 11 25 19 12 7 9 3 7 19 5 13 10 10 12 5 8 5 5 6 6 6 6 10 12 12
28 28 29 28 28 29 29 28 28 28 25 22 20 20 16 22 21 16 14 14 11 17 10 24 25 4 8 3 7 14 5 8 16 11 7 5 9 6 2 6 8 8 6 10 12
27 28 27 27 27 27 27 28 29 30 26 25 20 20 15 15 37 44 46 38 32 26 26 21 24 6 4 5 6 11 4 14 11 10 6 9 20 6 4 5 10 5 3 5 8
26 27 28 27 27 27 29 30 34 33 31 27 19 13 14 17 23 43 34 21 14 24 28 24 11 6 3 4 4 5 12 6 5 8 4 10 13 5 5 2 9 7 5 5 3
29 29 30 29 28 29 29 31 37 32 14 11 13 5 9 9 12 12 19 37 13 11 14 17 6 6 6 6 10 4 5 3 6 5 7 6 4 4 4 3 7 9 8 8 6
30 31 30 30 29 29 29 15 6 2 5 8 10 13 19 8 15 12 11 19 12 6 12 19 13 17 17 10 4 2 6 8 5 8 6 8 6 7 5 7 6 9 8 7 7
31 30 30 31 30 31 27 3 8 6 11 18 22 24 38 29 17 23 14 11 13 14 18 13 21 13 12 9 12 12 6 5 4 6 12 7 10 7 7 6 6 9 8 8 7
34 34 31 32 32 24 7 12 15 18 7 16 22 21 20 22 22 28 13 11 19 17 20 16 13 16 16 15 16 16 13 4 4 5 1 2 6 2 6 6 11 13 13 7 11
37 37 35 34 18 10 17 19 11 13 4 8 4 7 3 6 15 19 25 11 11 21 16 13 9 23 18 21 16 16 8 8 4 5 4 2 7 6 6 17 18 16 15 12 11
40 39 36 26 18 10 20 22 21 1 5 4 4 4 11 14 5 12 25 12 21 15 13 12 23 20 23 17 16 9 8 8 7 5 4 5 1 7 4 17 21 20 21 16 10
44 42 37 22 9 21 21 15 11 2 7 4 1 10 17 14 22 5 12 11 10 14 13 11 18 16 17 16 18 6 6 4 2 5 5 6 4 16 13 24 18 9 14 12 10
47 43 18 8 4 3 8 1 1 3 6 2 5 12 19 6 19 20 18 17 9 16 16 20 16 20 13 14 9 14 7 2 1 2 12 8 6 20 9 19 22 17 13 12 9
46 24 10 7 13 9 1 3 5 5 6 14 15 8 6 8 8 19 15 17 17 5 12 16 13 18 17 8 12 13 10 5 5 5 6 6 12 8 12 23 14 14 11 9 9
39 18 8 5 6 11 3 3 4 4 7 11 17 2 5 5 8 14 13 19 17 16 6 13 11 10 16 9 15 7 7 8 5 0 4 5 9 15 17 14 6 10 10 9 8
25 9 7 4 4 9 2 5 5 7 17 18 10 2 4 8 7 7 12 8 22 16 7 5 6 9 17 14 12 9 8 4 3 6 5 2 5 2 16 11 8 10 10 12 15
9 3 2 5 2 1 3 5 11 14 14 3 3 2 4 3 3 4 7 3 21 19 14 1 3 7 16 14 14 5 6 5 6 5 5 1 6 4 13 25 15 10 15 15 13
6 4 6 7 2 0 3 5 7 10 6 11 5 8 5 3 2 2 4 5 15 21 15 3 3 0 8 7 16 10 9 7 5 3 2 4 6 14 22 6 15 17 20 17 14
5 3 4 5 6 5 6 8 6 9 8 3 5 6 3 4 3 7 8 14 10 15 11 5 1 2 4 4 4 7 6 7 6 4 6 5 3 14 22 9 9 21 17 14 15
3 4 4 3 3 8 7 7 12 13 6 10 6 4 3 3 8 4 4 2 9 14 7 10 3 5 5 5 4 6 6 8 7 4 7 5 6 1 18 8 11 15 16 16 17
4 3 1 6 9 14 9 4 9 9 8 12 2 10 4 2 1 2 4 6 7 16 5 6 2 3 8 8 6 7 5 6 6 10 6 10 11 16 10 8 7 14 18 18 18
3 3 3 8 11 14 8 6 8 10 3 7 13 10 9 4 4 4 5 3 5 4 5 4 1 4 7 11 9 7 14 9 13 10 8 18 12 20 10 5 7 14 13 13 15
6 7 3 6 9 10 10 11 7 14 6 7 8 2 6 4 6 3 3 5 4 3 4 4 4 4 3 9 3 7 9 8 7 8 22 12 14 15 10 12 6 9 7 7 11
Wind_Direction
338 334 333 327 319 317 316 315 314 312 308 306 305 304 307 310 308 304 251 247 251 242 231 283 232 213 229 235 222 150 182 219 219 217 248 306 331 304 250 93 80 329 63 310 151
334 333 333 332 325 313 308 306 309 309 308 307 306 304 306 310 308 276 270 274 264 232 223 207 186 182 187 201 234 175 206 228 202 226 257 276 334 326 286 314 64 16 26 9 146
328 326 326 325 324 323 320 312 302 298 303 303 304 303 304 320 308 244 51 328 241 217 217 209 230 165 207 232 209 212 230 213 204 239 250 274 311 342 271 46 77 68 28 25 7
326 322 319 318 315 314 314 314 310 304 294 299 299 299 300 298 256 204 70 24 327 198 200 214 174 174 181 215 209 247 241 215 289 266 277 251 236 290 10 63 130 92 93 72 0
319 319 317 314 310 308 309 309 307 305 301 292 292 290 293 232 242 236 274 324 324 183 198 198 173 152 174 186 270 243 264 250 225 263 245 296 241 247 266 48 42 96 84 114 81
321 319 317 313 309 306 304 303 300 297 305 300 286 286 250 253 257 265 285 297 245 190 200 183 202 195 222 204 196 224 223 250 247 250 248 236 237 179 240 341 12 85 106 113 140
329 325 322 318 311 306 303 298 293 296 296 296 291 275 252 243 259 263 268 279 267 212 197 207 212 190 177 259 207 239 250 221 236 244 212 119 273 223 267 348 334 28 120 128 139
331 330 325 321 317 316 312 303 290 288 288 288 288 272 261 250 255 257 259 262 255 242 249 224 203 202 170 308 351 204 190 236 233 229 211 167 257 220 287 2 304 341 64 150 157
330 327 327 322 319 317 317 311 295 286 280 280 273 244 271 260 240 245 242 233 229 230 232 228 182 195 218 153 323 229 224 212 222 220 151 189 250 236 228 233 284 298 308 296 223
331 327 325 325 320 320 319 314 304 293 284 237 227 247 258 232 241 243 225 217 213 213 195 210 178 171 193 153 210 232 165 195 206 256 192 209 227 271 269 227 247 279 284 294 265
328 325 324 321 319 317 319 331 348 23 214 210 197 233 277 270 281 271 168 172 203 220 182 199 196 205 203 193 237 266 199 202 208 227 167 208 206 230 249 277 260 267 268 266 271
328 325 321 320 319 315 302 232 229 326 286 238 243 238 241 261 285 280 232 159 181 191 180 179 210 192 207 182 202 240 227 219 255 190 198 221 237 228 231 239 239 260 252 255 262
331 326 321 320 319 307 263 229 278 310 269 277 240 237 238 218 241 263 239 195 182 185 194 190 201 181 193 205 204 218 219 177 179 173 266 105 294 271 270 251 256 249 256 230 235
329 325 323 321 316 303 300 287 295 333 287 276 220 17 53 239 261 239 241 225 175 199 195 216 181 182 197 212 202 215 184 208 209 147 197 97 263 281 263 259 252 244 246 236 202
330 325 319 315 289 275 274 298 316 258 281 301 59 117 325 206 229 227 208 227 194 166 182 190 184 187 197 204 198 219 188 194 218 189 137 161 98 247 299 271 249 246 237 235 199
330 322 322 317 259 278 298 302 299 208 250 303 61 341 344 300 223 296 162 211 237 181 194 207 180 187 198 209 201 179 165 180 195 185 240 178 175 272 257 241 258 218 224 220 206
334 329 335 278 236 339 343 119 227 175 320 257 346 354 325 269 209 224 171 187 189 170 193 203 218 197 177 194 205 183 141 225 224 210 235 124 228 238 258 244 232 237 218 204 186
336 342 2 317 312 265 52 54 232 247 254 303 350 353 319 328 224 214 177 188 216 155 180 187 213 187 201 183 193 196 166 146 169 206 247 138 251 244 238 247 254 224 196 146 169
340 343 321 316 6 188 96 196 238 272 333 321 335 337 323 346 8 172 224 193 200 197 147 179 209 198 207 192 182 189 168 181 135 283 185 219 272 274 254 252 200 146 139 145 135
331 323 285 305 30 139 156 249 249 289 313 306 299 246 341 328 338 153 160 246 193 191 196 122 182 199 209 198 215 159 167 113 26 161 239 287 314 301 354 258 143 128 144 106 124
339 350 265 340 82 33 280 266 290 285 292 256 212 230 248 293 326 332 157 246 185 189 197 84 101 217 182 204 199 144 171 72 117 148 174 58 271 260 325 322 150 138 120 121 117
344 331 2 317 28 209 277 271 295 292 278 235 259 204 207 213 275 265 212 232 181 202 199 174 95 295 196 193 201 177 177 142 128 212 118 138 273 357 332 280 131 129 129 132 124
327 276 321 33 355 333 295 295 290 299 298 236 227 180 165 193 215 225 194 236 188 185 184 161 295 352 79 63 3 151 158 153 116 108 191 132 271 0 321 8 101 125 127 120 120
337 333 329 352 310 327 318 328 332 314 316 318 62 153 117 228 211 277 175 217 236 188 147 127 167 154 172 179 165 128 164 152 141 128 160 169 127 209 288 2 66 96 106 110 108
20 325 0 309 331 335 332 278 326 350 327 356 33 15 351 212 44 130 9 353 286 143 94 113 123 80 53 23 82 30 170 168 148 146 134 178 149 151 266 7 357 96 105 108 110
2 335 303 291 300 333 348 333 327 325 272 5 19 10 10 54 2 47 30 341 78 2 96 24 79 58 26 360 56 68 28 59 87 102 68 124 123 144 275 356 18 63 74 105 112
313 275 266 298 324 346 339 341 321 351 327 1 343 331 337 326 296 272 202 262 285 354 99 80 99 63 18 334 5 36 350 326 84 143 139 144 146 151 156 100 22 52 74 106 113